Content
SEND FEEDBACK

Daily
Averages
Monthly
Summary
United States of America

WEIPPE, IDAHO


Home > North America > United States > Idaho
Elevation: 988 meters     Latitude: 46 30N     Longitude: 115 48W

WEATHER
 
SELECT A DAY
Number of Records: 162,379;   Date Range: 1/1/95 - 8/12/14
 
SHARE

PRINT THIS DATA

[ ← Previous Day ]
WEATHER ALMANAC - 3 JANUARY, 2013
[ Next Day → ]
[ °F ]   °C
Weather ElementAverageHighLow
Temperature-4.5 °C1.7 °C (2:52 pm)-7.2 °C (5:52 am)
Dewpoint-7.9 °C-5.6 °C (3:52 pm)-10 °C (7:52 am)
Humidity78.2 %89 % (10:52 pm)52 % (2:52 pm)
Barometer1033.9 hPa1036.6 hPa (9:52 am)1030.8 hPa (2:52 pm)
Wind Speed4.2 km/h9.3 km/h (5:52 pm)
Weather ElementAverage
Wind DirectionSE (133.5 °)

Weather ElementTotal
Precipitation---
Heating Degree Days21.1 (Base 18.3)
Averaged from 23 records on 3 January, 2013
WEATHER CONDITIONS BREAKOUT
WIND DIRECTION BREAKOUT
WEATHER BY HOUR - 3 JANUARY, 2013
[ °F ]   °C
Local TimeTemperatureDewpointHumidityBarometerVisibilityWind DirectionWind SpeedGust SpeedPrecipitationEventsConditions
1:52 AM-6.1 °C-8.3 °C85 %1035.6 hPaNorth (360°)7.4 km/h
2:52 AM-6.7 °C-8.9 °C85 %1035.6 hPaNNW (340°)7.4 km/h
3:52 AM-6.7 °C-8.9 °C85 %1036.2 hPaCalm
4:52 AM-6.7 °C-8.9 °C85 %1035.6 hPaVariable5.6 km/h
5:52 AM-7.2 °C-9.4 °C85 %1035.6 hPaNNW (330°)5.6 km/h
6:52 AM-7.2 °C-9.4 °C85 %1036.2 hPaCalm
7:52 AM-7.2 °C-10 °C81 %1036.2 hPaCalm
8:52 AM-7.2 °C-10 °C81 %1036.2 hPaVariable5.6 km/h
9:52 AM-7.2 °C-10 °C81 %1036.6 hPaCalm
10:52 AM-5.6 °C-9.4 °C75 %1036.2 hPaNorth (360°)5.6 km/h
11:52 AM-3.9 °C-8.9 °C69 %1034.5 hPaVariable5.6 km/h
12:52 PM-0.6 °C-8.3 °C57 %1032.5 hPaCalm
1:52 PM0 °C-7.8 °C56 %1031.5 hPaNNE (20°)5.6 km/h
2:52 PM1.7 °C-7.2 °C52 %1030.8 hPaCalm
3:52 PM-0.6 °C-5.6 °C69 %1030.8 hPaNorth (350°)7.4 km/h
4:52 PM-1.7 °C-5.6 °C75 %1030.8 hPaNorth (10°)7.4 km/h
5:52 PM-2.2 °C-5.6 °C78 %1030.8 hPaNNW (330°)9.3 km/h
6:52 PM-3.3 °C-5.6 °C84 %1031.2 hPaNW (320°)5.6 km/h
7:52 PM-3.9 °C-6.1 °C85 %1031.8 hPaNW (320°)5.6 km/h
8:52 PM-4.4 °C-6.7 °C84 %1032.2 hPaCalm
9:52 PM-5 °C-6.7 °C88 %1033.2 hPaNNW (330°)7.4 km/h
10:52 PM-5.6 °C-7.2 °C89 %1033.5 hPaCalm
11:52 PM-5.6 °C-7.8 °C85 %1033.9 hPaVariable5.6 km/h
Hourly data recorded from KP69, located 0 kilometers away from Weippe, Idaho







STORIES FROM OUR PARTNERS